Weather History for KRXE - February, 2013

Change the Weather History Date:

Thursday, February 7, 2013

  Actual Average Record
Temperature  
Mean Temperature 24 °F 20 °F  
Max Temperature 33 °F 30 °F 52 °F (2015)
Min Temperature 15 °F 11 °F -10 °F (2001)
Degree Days  
Heating Degree Days 41 45  
Month to date heating degree days 275 315  
Since 1 July heating degree days 4761 5092  
Cooling Degree Days 0 0  
Month to date cooling degree days 0 0  
Year to date cooling degree days 0 0  
Moisture  
Dew Point 17 °F    
Average Humidity 77    
Maximum Humidity 96    
Minimum Humidity 58    
Precipitation  
Precipitation 0.00 in 0.03 in 0.19 in (2004)
Month to date precipitation T 0.21  
Year to date precipitation 1.13 0.95  
Sea Level Pressure  
Sea Level Pressure 30.16 in    
Wind  
Wind Speed 4 mph (NE)    
Max Wind Speed 8 mph    
Max Gust Speed 10 mph    
Visibility 9 miles    
Events      
T = Trace of Precipitation, MM = Missing Value Source: NWS Daily Summary

Daily Weather History Graph

Daily Weather History Graph

Search for Another Location

Airport or City:

Trip Planner

Search our weather history database for the weather conditions in past years. The results will help you decide how hot, cold, wet, or windy it might be!

Date:

Astronomy

Feb. 07, 2013 Rise Set
Actual Time 7:36 AM MST 5:46 PM MST
Civil Twilight 7:06 AM MST 6:16 PM MST
Nautical Twilight 6:32 AM MST 6:50 PM MST
Astronomical Twilight 5:59 AM MST 7:24 PM MST
Moon 5:22 AM MST (2/7) 3:12 PM MST (2/7)
Length of Visible Light 11h 10m
Length of Day
10h 10m
Waning Crescent, 8% of the Moon is Illuminated
Feb 7
Waning Crescent
Feb 10
New
Feb 17
First Quarter
Feb 25
Full
Mar 4
Last Quarter

Hourly Weather History & Observations

Time (MST) Temp. Windchill Dew Point Humidity Pressure Visibility Wind Dir Wind Speed Gust Speed Precip Events Conditions
12:03 AM 26.6 °F 22.6 °F 23.0 °F 86% 30.17 in 10.0 mi East 3.5 mph - N/A   Overcast
12:53 AM 27.0 °F - 24.1 °F 89% 30.28 in 10.0 mi Calm Calm - N/A   Overcast
1:53 AM 26.1 °F - 21.9 °F 84% 30.27 in 9.0 mi Calm Calm - N/A   Mostly Cloudy
2:53 AM 23.0 °F - 21.0 °F 92% 30.28 in 7.0 mi Calm Calm - N/A   Clear
3:02 AM 19.4 °F - 17.6 °F 93% 30.16 in 1.8 mi Calm Calm - N/A   Clear
3:10 AM 21.2 °F - 17.6 °F 86% 30.15 in 3.0 mi Calm Calm - N/A   Clear
3:53 AM 19.0 °F - 15.1 °F 85% 30.27 in 10.0 mi Calm Calm - N/A   Clear
4:53 AM 16.0 °F - 14.0 °F 92% 30.27 in 10.0 mi Calm Calm - N/A   Clear
5:53 AM 19.0 °F - 17.1 °F 92% 30.26 in 7.0 mi Calm Calm - N/A   Overcast
6:53 AM 23.0 °F - 16.0 °F 74% 30.23 in 10.0 mi Calm Calm - N/A   Scattered Clouds
7:53 AM 19.0 °F 13.9 °F 14.0 °F 81% 30.25 in 9.0 mi NE 3.5 mph - N/A   Clear
8:53 AM 19.9 °F 11.1 °F 12.9 °F 74% 30.25 in 10.0 mi NE 6.9 mph - N/A   Clear
9:53 AM 21.9 °F 15.7 °F 12.9 °F 68% 30.23 in 10.0 mi NNE 4.6 mph - N/A   Clear
10:53 AM 21.9 °F 17.2 °F 12.9 °F 68% 30.22 in 10.0 mi NE 3.5 mph - N/A   Clear
11:53 AM 24.1 °F 17.0 °F 14.0 °F 65% 30.19 in 10.0 mi ENE 5.8 mph - N/A   Clear
12:53 PM 26.1 °F 19.4 °F 16.0 °F 66% 30.14 in 10.0 mi East 5.8 mph - N/A   Clear
1:53 PM 28.9 °F 22.8 °F 16.0 °F 58% 30.11 in 10.0 mi NE 5.8 mph - N/A   Clear
2:53 PM 30.9 °F 24.3 °F 18.0 °F 59% 30.07 in 10.0 mi NE 6.9 mph - N/A   Clear
3:53 PM 32.0 °F 25.6 °F 21.0 °F 64% 30.06 in 10.0 mi NE 6.9 mph - N/A   Clear
4:53 PM 30.9 °F 26.2 °F 21.0 °F 67% 30.06 in 10.0 mi ENE 4.6 mph - N/A   Clear
5:53 PM 28.0 °F 22.8 °F 19.0 °F 69% 30.06 in 10.0 mi East 4.6 mph - N/A   Clear
6:53 PM 26.1 °F 21.9 °F 17.1 °F 69% 30.05 in 10.0 mi ENE 3.5 mph - N/A   Clear
7:53 PM 25.0 °F 19.3 °F 16.0 °F 69% 30.06 in 10.0 mi NNE 4.6 mph - N/A   Clear
8:53 PM 24.1 °F 17.0 °F 15.1 °F 69% 30.05 in 10.0 mi ENE 5.8 mph - N/A   Clear
9:53 PM 23.0 °F 17.0 °F 14.0 °F 68% 30.04 in 10.0 mi NNE 4.6 mph - N/A   Clear
10:53 PM 21.0 °F 13.4 °F 15.1 °F 78% 30.03 in 10.0 mi NE 5.8 mph - N/A   Clear
11:53 PM 19.0 °F - 12.9 °F 77% 30.03 in 10.0 mi Calm Calm - N/A   Clear